Location: Jaite
(41.2884°N, 81.5737°W)
Time: 19:45:19
(UTC+00:00)

Abrixas rocket - Pass Details

Date: 18 January 2020
Orbit: 353 x 361 km, 48.4° (Epoch: 21 February)

Event Time Altitude Azimuth Distance (km) Brightness Sun altitude
Exits shadow 11:08:52 20° 8° (N) 914 3.9 -18.5°
Drops below altitude 10° 11:11:00 10° 53° (NE) 1,355 5.4 -18.1°
Sets 11:13:22 0° 71° (ENE) 2,205 6.9 -17.6°
